Flag for United Kingdom Weather past 2 weeks in Southend-on-Sea, England, United Kingdom

Now
70 °F

Passing clouds.


Feels Like: 70 °F
Forecast: 58 / 75 °F
Wind: 14 mph from Southeast

Location: Southend Airport-On-Sea

Current Time: Aug 5, 2015 at 12:35:42 PM

Latest Report: Aug 5, 2015 at 12:20 PM


Visibility: N/A

Pressure: 29.92 "Hg

Humidity: 53%

Dew point: 52 °F

Location of Southend-on-SeaLocation

Historic Weather in Southend-on-Sea — Graph

°F

Southend-on-Sea temperature yesterday

Maximum temperature yesterday: 70 °F (at 10:50 AM)
Minimum temperature yesterday: 57 °F (at 5:50 AM)
Average temperature yesterday: 64 °F

Past Weeks' High & Low Weather Summary

 TemperatureHumidityPressure
High77 °F (Jul 21, 1:20 PM)94% (Jul 24, 8:20 PM)30.12 "Hg (Jul 24, 8:20 PM)
Low43 °F (Jul 31, 4:50 AM)27% (Aug 1, 3:20 PM)29.42 "Hg (Jul 26, 10:20 PM)
Average63 °F63%29.88 "Hg
* Reported Jul 21 11:20 AM — Aug 5 11:20 AM, Southend-on-Sea, Weather by CustomWeather, © 2015

Note: Actual official high and low records may vary slightly from our data, if they occured in-between our weather recording intervals... More about our weather records

Advertising

Southend-on-Sea weather history for previous 24 hours

 ConditionsComfort  
Time TempWeatherWind HumidityBarometerVisibility
11:20 AM
Wed, Aug 5
68 °FPassing clouds.5 mph49%29.98 "HgN/A
10:50 AM68 °FPassing clouds.7 mph49%29.98 "HgN/A
10:20 AM68 °FPassing clouds.8 mph53%29.98 "HgN/A
9:50 AM66 °FPassing clouds.7 mph52%29.98 "HgN/A
9:20 AM64 °FSunny.8 mph64%29.98 "Hg10 mi
8:50 AM64 °FPassing clouds.8 mph64%29.98 "HgN/A
8:20 AM63 °FPassing clouds.8 mph68%30.01 "HgN/A
7:50 AM63 °FPassing clouds.8 mph68%30.01 "HgN/A
7:20 AM61 °FPassing clouds.8 mph72%30.01 "HgN/A
6:50 AM61 °FSunny.8 mph72%30.01 "Hg10 mi
6:20 AM61 °FClear.8 mph72%29.98 "Hg10 mi
5:20 AM61 °FClear.9 mph72%29.98 "Hg10 mi
4:50 AM61 °FClear.9 mph72%29.98 "Hg10 mi
4:20 AM61 °FClear.8 mph72%29.98 "Hg10 mi
3:50 AM59 °FClear.7 mph72%29.98 "Hg10 mi
2:50 AM59 °FClear.9 mph72%29.98 "Hg10 mi
1:50 AM59 °FClear.8 mph72%29.98 "Hg10 mi
12:50 AM59 °FClear.8 mph72%29.98 "Hg10 mi
11:50 PM
Tue, Aug 4
59 °FClear.9 mph68%30.01 "Hg10 mi
11:20 PM59 °FClear.14 mph72%30.01 "Hg10 mi
10:50 PM59 °FClear.14 mph72%29.98 "Hg10 mi
10:20 PM61 °FClear.14 mph68%29.98 "Hg10 mi
9:50 PM61 °FClear.14 mph63%29.98 "Hg10 mi
9:20 PM61 °FSunny.14 mph63%29.98 "Hg10 mi
8:50 PM63 °FSunny.16 mph64%29.98 "Hg10 mi
8:20 PM64 °FSunny.16 mph56%29.98 "Hg10 mi
7:50 PM64 °FSunny.17 mph56%29.95 "Hg10 mi
6:50 PM68 °FPassing clouds.17 mph49%29.95 "HgN/A
6:20 PM68 °FPassing clouds.18 mph46%29.95 "HgN/A
5:50 PM68 °FPassing clouds.20 mph46%29.92 "HgN/A
5:20 PM70 °FPassing clouds.21 mph40%29.95 "HgN/A
4:50 PM70 °FPassing clouds.18 mph43%29.92 "HgN/A
4:20 PM70 °FPassing clouds.20 mph46%29.92 "HgN/A
3:50 PM70 °FPartly sunny.17 mph43%29.92 "HgN/A
3:20 PM70 °FPassing clouds.23 mph46%29.92 "HgN/A
2:50 PM68 °FScattered clouds.17 mph49%29.92 "HgN/A
2:20 PM70 °FPassing clouds.20 mph46%29.92 "HgN/A
1:50 PM68 °FScattered clouds.18 mph49%29.92 "HgN/A
1:20 PM68 °FScattered clouds.18 mph46%29.89 "HgN/A
12:50 PM68 °FScattered clouds.20 mph49%29.89 "HgN/A
12:20 PM70 °FPartly sunny.17 mph46%29.89 "HgN/A
Weather by CustomWeather, © 2015

See weather overviewHow to use our weather pages